EW4692 Narbonne FR current weather conditions

sailwx.info

Wind from 266 at 10 knots gusting 19

Air temperature 16.7° C
Dewpoint 10.9° C

Last reported at 2019-Dec-14 14:52 UTC.
Time now 2019-Dec-14 15:24 UTC

Location: N 43°12' E 002°59'.
View on Google Maps.

See reports from other nearby stations

  
Tides and Currents Weather Stations Pressure Air Temp Water Temp Dewpoint Dewpoint Depression Visibility Wind Speed Wind Dir Waves Ship Positions
date/time (UTC)wind fromknots sea level pressurealtimeterstation pressurevisibilityair tempwater tempwave heightnotes
2019-Dec-14 15:03 292 7 gusting 14 16.7
2019-Dec-14 14:52 266 10 gusting 19 16.7
2019-Dec-14 14:48 268 8 gusting 19 16.7
2019-Dec-14 14:42 273 11 gusting 21 17.2
2019-Dec-14 14:37 309 11 gusting 21 17.2
2019-Dec-14 14:32 294 9 gusting 21 17.2
2019-Dec-14 14:27 284 10 gusting 20 17.2
2019-Dec-14 14:22 290 11 gusting 20 17.2
2019-Dec-14 14:17 270 8 gusting 19 17.2
2019-Dec-14 14:12 272 7 gusting 19 17.8
2019-Dec-14 14:07 355 9 gusting 19 17.8
2019-Dec-14 14:04 242 10 gusting 19 17.2
2019-Dec-14 13:57 263 10 gusting 19 17.8
2019-Dec-14 13:52 300 9 gusting 17 17.8
2019-Dec-14 13:48 312 9 gusting 17 17.8
2019-Dec-14 13:42 288 8 gusting 17 17.8
2019-Dec-14 13:37 286 10 gusting 17 18.3
2019-Dec-14 13:32 273 10 gusting 17 18.3
2019-Dec-14 13:27 257 9 gusting 17 18.3
2019-Dec-14 13:22 267 8 gusting 17 18.3
2019-Dec-14 13:17 263 9 gusting 17 18.3
2019-Dec-14 13:12 267 10 gusting 17 18.3
2019-Dec-14 13:07 282 10 gusting 16 18.3
2019-Dec-14 13:02 285 11 gusting 16 18.3
2019-Dec-14 12:57 297 9 gusting 15 18.9
2019-Dec-14 12:52 286 7 gusting 17 18.9
2019-Dec-14 12:47 241 8 gusting 17 18.3
2019-Dec-14 12:42 254 8 gusting 22 18.3
2019-Dec-14 12:37 285 10 gusting 22 18.3
2019-Dec-14 12:32 290 12 gusting 21 17.8
2019-Dec-14 12:27 277 12 gusting 22 18.3
2019-Dec-14 12:22 266 13 gusting 24 17.8
2019-Dec-14 12:17 319 13 gusting 25 17.8
2019-Dec-14 12:12 284 15 gusting 27 17.8
2019-Dec-14 12:07 286 14 gusting 30 17.8
2019-Dec-14 12:02 284 12 gusting 30 17.2
2019-Dec-14 11:57 267 18 gusting 30 17.8
2019-Dec-14 11:52 306 18 gusting 30 17.8
2019-Dec-14 11:47 259 17 gusting 30 17.2
2019-Dec-14 11:42 296 13 gusting 28 17.8
2019-Dec-14 11:37 273 12 gusting 27 17.8
2019-Dec-14 11:32 265 13 gusting 27 17.2
2019-Dec-14 11:27 313 14 gusting 27 17.2
2019-Dec-14 11:22 272 13 gusting 27 17.2
2019-Dec-14 11:17 342 13 gusting 23 17.2
2019-Dec-14 11:12 299 13 gusting 23 17.2
2019-Dec-14 11:07 242 12 gusting 23 17.2
2019-Dec-14 11:02 292 11 gusting 21 16.7
2019-Dec-14 10:57 306 13 gusting 27 17.2
2019-Dec-14 10:52 271 14 gusting 30 16.7
2019-Dec-14 10:47 268 15 gusting 30 16.1
2019-Dec-14 10:42 268 19 gusting 32 16.7
2019-Dec-14 10:37 292 17 gusting 30 16.7
2019-Dec-14 10:32 243 16 gusting 31 16.7
2019-Dec-14 10:27 292 17 gusting 31 16.7
2019-Dec-14 10:22 265 17 gusting 32 16.7
2019-Dec-14 10:17 281 18 gusting 32 16.7
2019-Dec-14 10:12 313 18 gusting 32 16.7
2019-Dec-14 10:07 315 16 gusting 31 16.7
2019-Dec-14 10:02 257 16 gusting 28 16.7
2019-Dec-14 09:57 279 16 gusting 27 16.1
2019-Dec-14 09:52 316 15 gusting 26 16.1
2019-Dec-14 09:47 294 13 gusting 26 15.6
2019-Dec-14 09:42 281 13 gusting 28 15.6
2019-Dec-14 09:37 266 15 gusting 28 15.0
2019-Dec-14 09:32 300 14 gusting 27 15.6
2019-Dec-14 09:27 297 13 gusting 27 15.0
2019-Dec-14 09:22 205 15 gusting 26 15.0
2019-Dec-14 09:02 250 14 gusting 29 15.0
2019-Dec-14 08:52 263 13 gusting 26 15.0
2019-Dec-14 08:47 278 15 gusting 26 15.0
2019-Dec-14 08:42 263 16 gusting 32 15.0
2019-Dec-14 08:37 286 16 gusting 32 14.4
2019-Dec-14 08:32 290 16 gusting 28 14.4
2019-Dec-14 08:30 298 18 gusting 29 14.4
2019-Dec-14 08:22 296 14 gusting 30 14.4
2019-Dec-14 08:17 291 14 gusting 28 14.4
2019-Dec-14 08:15 236 14 gusting 30 13.9
2019-Dec-14 08:07 263 14 gusting 29 13.9
2019-Dec-14 08:02 284 14 gusting 27 13.9
2019-Dec-14 08:00 307 13 gusting 26 13.3
2019-Dec-14 07:52 272 16 gusting 30 13.9
2019-Dec-14 07:47 264 16 gusting 30 13.9
2019-Dec-14 07:42 288 15 gusting 30 13.9
2019-Dec-14 07:37 232 15 gusting 28 13.9
2019-Dec-14 07:32 272 15 gusting 28 13.3
2019-Dec-14 07:27 290 17 gusting 38 13.9
2019-Dec-14 07:22 265 18 gusting 29 13.9
2019-Dec-14 07:17 287 16 gusting 29 13.3
2019-Dec-14 07:12 295 16 gusting 29 13.9
2019-Dec-14 07:07 302 16 gusting 29 13.9
2019-Dec-14 07:02 283 16 gusting 29 13.9
2019-Dec-14 06:57 327 15 gusting 30 13.9
2019-Dec-14 06:52 273 17 gusting 30 13.9
2019-Dec-14 06:47 276 19 gusting 30 13.3
2019-Dec-14 06:42 296 19 gusting 33 13.9
2019-Dec-14 06:37 304 18 gusting 33 13.9
2019-Dec-14 06:33 316 19 gusting 34 13.3
2019-Dec-14 06:27 348 18 gusting 33 13.3
2019-Dec-14 06:22 322 18 gusting 34 13.3
2019-Dec-14 06:17 297 18 gusting 34 13.3
2019-Dec-14 06:12 271 18 gusting 30 13.3
2019-Dec-14 06:07 273 18 gusting 30 13.9
2019-Dec-14 06:03 281 17 gusting 35 13.3
2019-Dec-14 05:57 265 17 gusting 31 13.9
2019-Dec-14 05:52 261 18 gusting 32 13.3
2019-Dec-14 05:47 290 19 gusting 32 13.3
2019-Dec-14 05:42 271 19 gusting 33 13.3
2019-Dec-14 05:37 311 19 gusting 36 13.3
2019-Dec-14 05:32 272 19 gusting 36 13.3
2019-Dec-14 05:27 292 20 gusting 37 13.3
2019-Dec-14 05:22 294 20 gusting 37 13.3
2019-Dec-14 05:17 288 21 gusting 35 13.3
2019-Dec-14 05:12 319 20 gusting 33 13.3
2019-Dec-14 05:07 288 19 gusting 33 13.3
2019-Dec-14 05:02 273 20 gusting 33 13.3
2019-Dec-14 04:57 320 19 gusting 33 13.3
2019-Dec-14 04:52 298 19 gusting 33 13.3
2019-Dec-14 04:47 329 17 gusting 33 13.3
2019-Dec-14 04:42 267 20 gusting 34 13.3
2019-Dec-14 04:37 267 21 gusting 34 13.3
2019-Dec-14 04:32 304 21 gusting 34 13.3
2019-Dec-14 04:27 257 21 gusting 34 13.3
2019-Dec-14 04:22 286 21 gusting 37 13.3
2019-Dec-14 04:17 288 22 gusting 37 13.3
2019-Dec-14 04:12 316 22 gusting 38 13.3
2019-Dec-14 04:07 271 20 gusting 38 13.3
2019-Dec-14 04:02 254 21 gusting 38 13.3
2019-Dec-14 03:57 333 22 gusting 33 13.3
2019-Dec-14 03:52 296 21 gusting 33 13.3
2019-Dec-14 03:47 300 20 gusting 33 13.3
2019-Dec-14 03:42 308 19 gusting 33 13.3
2019-Dec-14 03:37 303 20 gusting 32 13.3
2019-Dec-14 03:32 279 19 gusting 31 13.3
2019-Dec-14 03:27 295 18 gusting 33 12.8
2019-Dec-14 03:22 298 18 gusting 33 12.8
2019-Dec-14 03:17 283 17 gusting 33 12.8
2019-Dec-14 03:12 331 18 gusting 34 13.3
2019-Dec-14 03:07 257 20 gusting 34 13.3
2019-Dec-14 03:02 275 21 gusting 34 12.8
2019-Dec-14 02:57 271 20 gusting 39 13.3
2019-Dec-14 02:52 310 20 gusting 39 13.3
2019-Dec-14 02:47 274 19 gusting 35 13.3
2019-Dec-14 02:42 294 19 gusting 35 13.3
2019-Dec-14 02:37 292 19 gusting 35 13.3
2019-Dec-14 02:32 339 18 gusting 32 13.3
2019-Dec-14 02:27 302 19 gusting 32 13.3
2019-Dec-14 02:22 286 18 gusting 33 13.3
2019-Dec-14 02:17 265 17 gusting 33 13.3
2019-Dec-14 02:12 254 17 gusting 33 13.3
2019-Dec-14 02:07 292 17 gusting 28 13.3
2019-Dec-14 02:02 257 16 gusting 33 13.3
2019-Dec-14 01:57 294 14 gusting 33 13.3
2019-Dec-14 01:52 281 16 gusting 33 13.3
2019-Dec-14 01:47 304 16 gusting 39 13.3
2019-Dec-14 01:42 290 18 gusting 39 13.3
2019-Dec-14 01:37 333 19 gusting 39 13.3
2019-Dec-14 01:32 281 18 gusting 38 13.9
2019-Dec-14 01:27 242 18 gusting 36 13.9
2019-Dec-14 01:22 261 19 gusting 34 13.9
2019-Dec-14 01:17 245 19 gusting 34 13.3
2019-Dec-14 01:12 260 18 gusting 32 13.3
2019-Dec-14 01:07 321 17 gusting 33 13.3
2019-Dec-14 01:02 265 16 gusting 33 13.3
2019-Dec-14 00:57 280 16 gusting 28 13.3
2019-Dec-14 00:52 286 16 gusting 33 13.3
2019-Dec-14 00:47 267 16 gusting 33 13.3
2019-Dec-14 00:42 269 17 gusting 33 13.3
2019-Dec-14 00:37 284 19 gusting 33 13.9
2019-Dec-14 00:32 288 19 gusting 33 13.9
2019-Dec-14 00:27 285 17 gusting 33 13.9
2019-Dec-14 00:22 288 16 gusting 27 13.9
2019-Dec-14 00:17 269 14 gusting 30 13.9
2019-Dec-14 00:12 262 15 gusting 30 13.9
2019-Dec-14 00:07 263 16 gusting 32 13.9
2019-Dec-14 00:02 259 17 gusting 32 13.9
2019-Dec-13 23:57 292 17 gusting 28 13.9
2019-Dec-13 23:52 246 17 gusting 29 13.9
2019-Dec-13 23:47 313 18 gusting 36 13.9
2019-Dec-13 23:42 252 19 gusting 36 13.9
2019-Dec-13 23:37 227 19 gusting 36 14.4
2019-Dec-13 23:32 296 18 gusting 32 14.4
2019-Dec-13 23:27 269 18 gusting 32 14.4
2019-Dec-13 23:22 283 18 gusting 30 13.9
2019-Dec-13 23:17 318 18 gusting 30 13.9
2019-Dec-13 23:12 267 18 gusting 33 13.9
2019-Dec-13 23:07 271 19 gusting 33 13.9
2019-Dec-13 23:02 288 19 gusting 33 13.9
2019-Dec-13 23:00 281 23 gusting 33 13.9
2019-Dec-13 22:52 279 16 gusting 30 13.9
2019-Dec-13 22:47 286 16 gusting 28 13.9
2019-Dec-13 22:42 276 16 gusting 28 13.9
2019-Dec-13 22:37 294 15 gusting 29 13.9
2019-Dec-13 22:32 290 15 gusting 29 13.3
2019-Dec-13 22:27 269 15 gusting 29 13.3
2019-Dec-13 22:22 315 15 gusting 32 13.3
2019-Dec-13 22:17 290 17 gusting 32 13.3
2019-Dec-13 22:15 277 14 gusting 32 13.3
2019-Dec-13 22:07 265 14 gusting 30 13.9
2019-Dec-13 22:02 277 15 gusting 30 13.9
2019-Dec-13 22:00 231 13 gusting 30 13.9
2019-Dec-13 21:52 287 13 gusting 25 14.4
2019-Dec-13 21:47 286 13 gusting 25 13.9
2019-Dec-13 21:42 258 13 gusting 24 14.4
2019-Dec-13 21:37 278 13 gusting 23 14.4
2019-Dec-13 21:32 244 10 gusting 19 13.9
2019-Dec-13 21:27 271 13 gusting 28 14.4
2019-Dec-13 21:22 294 15 gusting 28 14.4
2019-Dec-13 21:17 307 13 gusting 26 13.9
2019-Dec-13 21:12 288 13 gusting 28 13.9
2019-Dec-13 21:07 265 13 gusting 28 14.4
2019-Dec-13 21:02 263 11 gusting 26 13.9
2019-Dec-13 20:57 263 14 gusting 27 14.4
2019-Dec-13 20:52 289 13 gusting 27 13.9
2019-Dec-13 20:47 294 12 gusting 22 13.9
2019-Dec-13 20:42 308 13 gusting 25 13.9
2019-Dec-13 20:37 318 14 gusting 25 13.9
2019-Dec-13 20:33 259 14 gusting 29 13.9
2019-Dec-13 20:27 286 12 gusting 23 13.9
2019-Dec-13 20:22 301 12 gusting 23 13.9
2019-Dec-13 20:17 259 12 gusting 23 13.3
2019-Dec-13 20:12 270 11 gusting 23 13.9
2019-Dec-13 20:07 289 11 gusting 21 13.9
2019-Dec-13 20:02 279 13 gusting 21 13.9
2019-Dec-13 19:57 294 13 gusting 21 13.9
2019-Dec-13 19:52 297 11 gusting 19 13.3
2019-Dec-13 19:47 305 10 gusting 16 13.3
2019-Dec-13 19:42 284 9 gusting 16 13.3
2019-Dec-13 19:37 270 8 gusting 16 13.3
2019-Dec-13 19:32 285 6 gusting 16 12.8
2019-Dec-13 19:27 315 7 gusting 14 13.3
2019-Dec-13 19:22 285 6 gusting 13 12.8
2019-Dec-13 19:17 286 5 gusting 12 12.8
2019-Dec-13 19:12 292 5 gusting 12 12.8
2019-Dec-13 19:07 315 3 gusting 10 12.2
2019-Dec-13 19:02 240 1 gusting 7 12.2
2019-Dec-13 18:57 329 3 gusting 8 12.2
2019-Dec-13 18:52 320 4 gusting 13 12.2
2019-Dec-13 18:48 265 3 gusting 13 11.7
2019-Dec-13 18:42 300 5 gusting 13 12.2
2019-Dec-13 18:37 298 6 gusting 15 12.2
2019-Dec-13 18:32 263 6 gusting 15 12.2
2019-Dec-13 18:27 271 7 gusting 17 12.2
2019-Dec-13 18:22 277 7 gusting 17 12.2
2019-Dec-13 18:17 261 6 gusting 15 12.2
2019-Dec-13 18:12 265 6 gusting 15 12.2
2019-Dec-13 18:07 314 6 gusting 15 12.2
2019-Dec-13 18:02 304 6 gusting 15 12.2
2019-Dec-13 17:57 329 6 gusting 15 11.7
2019-Dec-13 17:52 279 7 gusting 15 11.7
2019-Dec-13 17:48 261 6 gusting 17 11.7
2019-Dec-13 17:42 304 6 gusting 13 11.7
2019-Dec-13 17:37 280 6 gusting 13 11.7
2019-Dec-13 17:33 289 6 gusting 14 11.1
2019-Dec-13 17:27 275 8 gusting 15 11.7
2019-Dec-13 17:22 275 9 gusting 15 11.7
2019-Dec-13 17:19 276 10 gusting 15 11.1
2019-Dec-13 17:12 282 8 gusting 16 11.7
2019-Dec-13 17:07 348 10 gusting 20 11.7
2019-Dec-13 17:02 272 11 gusting 20 11.7
2019-Dec-13 16:57 271 11 gusting 20 11.7
2019-Dec-13 16:52 290 9 gusting 17 11.7
2019-Dec-13 16:42 267 9 gusting 19 11.7
2019-Dec-13 16:37 279 10 gusting 19 11.7
2019-Dec-13 16:32 280 10 gusting 17 11.7
2019-Dec-13 16:27 288 8 gusting 17 11.7
2019-Dec-13 16:22 286 6 gusting 13 11.7
2019-Dec-13 16:17 290 6 gusting 17 11.7
2019-Dec-13 16:12 328 7 gusting 17 11.7
2019-Dec-13 16:07 317 8 gusting 17 12.2
2019-Dec-13 16:02 273 9 gusting 14 12.2
2019-Dec-13 15:57 276 9 gusting 23 12.2
2019-Dec-13 15:52 274 10 gusting 23 12.2
2019-Dec-13 15:47 286 10 gusting 26 12.2
2019-Dec-13 15:42 288 12 gusting 26 12.2
2019-Dec-13 15:37 269 13 gusting 26 12.2
2019-Dec-13 15:32 282 12 gusting 20 12.2
2019-Dec-13 15:27 286 11 gusting 20 12.2
2019-Dec-13 15:22 275 10 gusting 18 12.2
2019-Dec-13 15:17 320 10 gusting 18 12.2
2019-Dec-13 15:12 291 10 gusting 18 12.8
2019-Dec-13 15:07 277 11 gusting 19 12.8
2019-Dec-13 15:02 270 11 gusting 19 12.8
2019-Dec-13 14:57 298 11 gusting 22 13.3
2019-Dec-13 14:52 256 11 gusting 22 13.3
2019-Dec-13 14:47 274 13 gusting 22 13.3
2019-Dec-13 14:42 332 13 gusting 27 13.3
2019-Dec-13 14:37 311 13 gusting 27 13.3
2019-Dec-13 14:32 317 15 gusting 27 13.3
2019-Dec-13 14:27 301 15 gusting 30 13.9
2019-Dec-13 14:22 282 15 gusting 31 13.9
2019-Dec-13 14:17 272 16 gusting 37 13.9
2019-Dec-13 14:12 307 18 gusting 37 13.9
2019-Dec-13 14:07 270 18 gusting 37 14.4
2019-Dec-13 14:02 302 18 gusting 40 13.9
2019-Dec-13 13:57 282 19 gusting 40 13.9
2019-Dec-13 13:52 256 16 gusting 32 13.3
2019-Dec-13 13:47 303 14 gusting 30 13.3
2019-Dec-13 13:42 277 14 gusting 30 13.3
2019-Dec-13 13:37 317 14 gusting 26 13.3
2019-Dec-13 13:32 283 14 gusting 28 13.3
2019-Dec-13 13:27 307 16 gusting 28 13.3
2019-Dec-13 13:22 260 15 gusting 28 13.3
2019-Dec-13 13:17 284 13 gusting 26 13.3
2019-Dec-13 13:12 302 13 gusting 33 13.3
2019-Dec-13 13:07 289 15 gusting 33 13.3
2019-Dec-13 13:02 298 13 gusting 33 13.3
2019-Dec-13 12:57 251 12 gusting 28 13.3
2019-Dec-13 12:52 279 13 gusting 33 13.9
2019-Dec-13 12:47 277 14 gusting 33 13.9
2019-Dec-13 12:42 324 15 gusting 29 14.4
2019-Dec-13 12:37 331 15 gusting 28 14.4
2019-Dec-13 12:32 331 15 gusting 26 14.4
2019-Dec-13 12:27 304 16 gusting 33 13.9
2019-Dec-13 12:22 256 16 gusting 33 13.9
2019-Dec-13 12:17 301 18 gusting 33 13.9
2019-Dec-13 12:12 288 16 gusting 30 14.4
2019-Dec-13 12:07 330 13 gusting 26 14.4
2019-Dec-13 12:02 288 13 gusting 26 14.4
2019-Dec-13 11:57 275 12 gusting 23 14.4
2019-Dec-13 11:52 293 11 gusting 23 13.9
2019-Dec-13 11:47 295 10 gusting 26 13.3
2019-Dec-13 11:42 290 10 gusting 26 13.3
2019-Dec-13 11:37 304 12 gusting 26 13.3
2019-Dec-13 11:32 311 13 gusting 26 13.3
2019-Dec-13 11:27 286 11 gusting 20 13.3
2019-Dec-13 11:22 300 10 gusting 32 13.3
2019-Dec-13 11:17 355 12 gusting 32 13.9
2019-Dec-13 11:12 280 12 gusting 32 13.9
2019-Dec-13 11:07 234 10 gusting 19 13.9
2019-Dec-13 11:02 316 11 gusting 24 13.9
2019-Dec-13 10:57 325 13 gusting 24 13.9
2019-Dec-13 10:52 302 14 gusting 24 13.9
2019-Dec-13 10:47 315 13 gusting 25 13.9
2019-Dec-13 10:42 302 12 gusting 25 13.9
2019-Dec-13 10:37 280 13 gusting 26 13.9
2019-Dec-13 10:32 285 13 gusting 26 13.9
2019-Dec-13 10:30 323 11 gusting 26 13.3
2019-Dec-13 10:22 005 14 gusting 31 13.9
2019-Dec-13 10:17 287 15 gusting 35 13.9
2019-Dec-13 10:12 277 16 gusting 35 13.9
2019-Dec-13 10:07 344 15 gusting 26 13.9
2019-Dec-13 10:02 289 14 gusting 28 13.9
2019-Dec-13 09:57 275 14 gusting 28 13.9
2019-Dec-13 09:52 252 14 gusting 28 13.9
2019-Dec-13 09:47 297 13 gusting 28 13.9
2019-Dec-13 09:42 309 13 gusting 28 13.9
2019-Dec-13 09:37 301 14 gusting 27 13.9
2019-Dec-13 09:32 288 13 gusting 27 13.3
2019-Dec-13 09:27 315 13 gusting 29 13.3
2019-Dec-13 09:22 320 14 gusting 31 13.3
2019-Dec-13 09:17 274 16 gusting 31 13.3
2019-Dec-13 09:12 281 13 gusting 21 13.3
2019-Dec-13 09:07 307 10 gusting 21 13.3
2019-Dec-13 09:02 338 7 gusting 16 12.8
2019-Dec-13 08:57 284 7 gusting 22 12.8
2019-Dec-13 08:52 269 10 gusting 26 13.3
2019-Dec-13 08:47 326 13 gusting 26 13.3
2019-Dec-13 08:45 326 10 gusting 26 12.8
2019-Dec-13 08:37 293 13 gusting 25 13.3
2019-Dec-13 08:32 282 13 gusting 26 13.3
2019-Dec-13 08:30 288 12 gusting 26 13.3
2019-Dec-13 08:22 324 16 gusting 32 13.9
2019-Dec-13 08:17 273 16 gusting 32 13.9
2019-Dec-13 08:15 335 17 gusting 32 13.3
2019-Dec-13 08:07 297 14 gusting 26 13.9
2019-Dec-13 08:02 263 12 gusting 26 13.9
2019-Dec-13 07:57 288 16 gusting 28 13.9
2019-Dec-13 07:52 288 16 gusting 28 13.9
2019-Dec-13 07:48 263 13 gusting 30 13.9
2019-Dec-13 07:42 309 15 gusting 33 13.9
2019-Dec-13 07:37 270 17 gusting 33 14.4
2019-Dec-13 07:33 275 19 gusting 33 14.4
2019-Dec-13 07:27 275 16 gusting 35 14.4
2019-Dec-13 07:22 293 17 gusting 35 14.4
2019-Dec-13 07:17 263 17 gusting 26 13.9
2019-Dec-13 07:12 275 16 gusting 35 14.4
2019-Dec-13 07:07 300 18 gusting 37 14.4
2019-Dec-13 07:02 259 17 gusting 37 14.4
2019-Dec-13 06:57 207 17 gusting 37 14.4
2019-Dec-13 06:52 252 15 gusting 33 14.4
2019-Dec-13 06:47 288 15 gusting 31 14.4
2019-Dec-13 06:42 266 14 gusting 31 13.9
2019-Dec-13 06:37 273 14 gusting 34 13.9
2019-Dec-13 06:32 250 12 gusting 34 13.9
2019-Dec-13 06:27 273 17 gusting 34 13.9
2019-Dec-13 06:22 276 16 gusting 30 14.4
2019-Dec-13 06:17 258 13 gusting 29 13.9
2019-Dec-13 06:12 268 13 gusting 30 13.9
2019-Dec-13 06:07 310 11 gusting 31 13.9
2019-Dec-13 06:02 307 11 gusting 28 13.9
2019-Dec-13 05:57 231 13 gusting 31 13.9
2019-Dec-13 05:52 281 14 gusting 28 13.9
2019-Dec-13 05:47 273 14 gusting 28 13.9
2019-Dec-13 05:42 229 13 gusting 24 13.9
2019-Dec-13 05:37 279 11 gusting 24 13.9
2019-Dec-13 05:32 274 11 gusting 22 13.3
2019-Dec-13 05:27 227 10 gusting 24 13.9
2019-Dec-13 05:22 212 10 gusting 23 13.9
2019-Dec-13 05:17 285 9 gusting 23 13.3
2019-Dec-13 05:12 284 10 gusting 33 13.9
2019-Dec-13 05:07 281 10 gusting 33 13.9
2019-Dec-13 05:02 224 11 gusting 23 13.9
2019-Dec-13 04:57 307 10 gusting 23 13.3
2019-Dec-13 04:52 285 11 gusting 23 13.3
2019-Dec-13 04:47 211 13 gusting 23 13.3
2019-Dec-13 04:42 288 12 gusting 21 13.3
2019-Dec-13 04:37 298 9 gusting 21 13.3
2019-Dec-13 04:33 269 7 gusting 19 12.8
2019-Dec-13 04:27 221 9 gusting 21 13.3
2019-Dec-13 04:22 265 9 gusting 21 13.3
2019-Dec-13 04:17 299 9 gusting 21 13.3
2019-Dec-13 04:12 289 9 gusting 22 13.3
2019-Dec-13 04:07 291 8 gusting 22 13.3
2019-Dec-13 04:02 266 8 gusting 22 13.3
2019-Dec-13 03:57 288 9 gusting 22 13.3
2019-Dec-13 03:52 244 8 gusting 22 13.3
2019-Dec-13 03:47 276 6 gusting 21 12.8
2019-Dec-13 03:42 275 11 gusting 22 13.3
2019-Dec-13 03:37 263 10 gusting 21 12.8
2019-Dec-13 03:32 295 9 gusting 21 12.8
2019-Dec-13 03:27 303 8 gusting 20 12.8
2019-Dec-13 03:22 284 7 gusting 16 12.8
2019-Dec-13 03:17 282 6 gusting 16 12.8
2019-Dec-13 03:12 254 5 gusting 13 12.2
2019-Dec-13 03:07 279 2 gusting 10 12.2
2019-Dec-13 03:02 238 2 gusting 14 12.2
2019-Dec-13 02:57 259 3 gusting 14 12.2
2019-Dec-13 02:52 309 4 gusting 14 12.2
2019-Dec-13 02:47 286 6 gusting 14 12.2
2019-Dec-13 02:42 289 6 gusting 14 12.2
2019-Dec-13 02:37 234 6 gusting 14 12.2
2019-Dec-13 02:32 296 5 gusting 14 12.2
2019-Dec-13 02:27 282 4 gusting 14 12.2
2019-Dec-13 02:22 245 5 gusting 14 12.2
2019-Dec-13 02:17 317 6 gusting 14 12.2
2019-Dec-13 02:12 278 6 gusting 14 12.2
2019-Dec-13 02:07 221 5 gusting 13 12.2
2019-Dec-13 02:02 209 5 gusting 13 11.7
2019-Dec-13 01:57 300 5 gusting 13 11.7
2019-Dec-13 01:52 284 4 gusting 13 11.7
2019-Dec-13 01:47 272 4 gusting 13 11.7
2019-Dec-13 01:42 202 3 gusting 13 11.7
2019-Dec-13 01:37 275 3 gusting 13 11.7
2019-Dec-13 01:32 245 4 gusting 15 11.7
2019-Dec-13 01:27 279 5 gusting 15 11.1
2019-Dec-13 01:22 296 4 gusting 12 11.1
2019-Dec-13 01:17 217 4 gusting 12 11.1
2019-Dec-13 01:15 246 0 gusting 12 10.6
2019-Dec-13 01:07 289 5 gusting 13 10.6
2019-Dec-13 01:02 264 4 gusting 13 10.6
2019-Dec-13 01:00 251 4 gusting 13 10.0
2019-Dec-13 00:52 253 1 gusting 7 10.0
2019-Dec-13 00:47 259 1 gusting 7 10.0
2019-Dec-13 00:45 241 2 gusting 7 9.4
2019-Dec-13 00:37 261 0 gusting 5 9.4
2019-Dec-13 00:33 242 8.9
2019-Dec-13 00:27 243 0 gusting 5 8.9
2019-Dec-13 00:22 244 0 gusting 2 8.3
2019-Dec-13 00:17 237 7.8
2019-Dec-13 00:07 293 7.8
2019-Dec-13 00:02 293 7.2
2019-Dec-12 23:57 293 7.8
2019-Dec-12 23:52 293 7.8
2019-Dec-12 23:47 293 7.2
2019-Dec-12 23:42 293 7.8
2019-Dec-12 23:37 293 7.8
2019-Dec-12 23:32 293 7.2
2019-Dec-12 23:27 293 7.8
2019-Dec-12 23:22 293 7.8
2019-Dec-12 23:17 293 7.8
2019-Dec-12 23:12 293 7.8
2019-Dec-12 23:07 293 7.8
2019-Dec-12 23:02 293 7.8
2019-Dec-12 22:57 293 7.8
2019-Dec-12 22:52 293 7.8
2019-Dec-12 22:47 293 7.8
2019-Dec-12 22:42 293 7.8
2019-Dec-12 22:37 293 7.8
2019-Dec-12 22:32 293 7.2
2019-Dec-12 22:27 293 7.8
2019-Dec-12 22:22 293 7.8
2019-Dec-12 22:17 293 7.8
2019-Dec-12 22:12 293 7.8
2019-Dec-12 22:07 293 7.8
2019-Dec-12 22:02 293 8.3
2019-Dec-12 21:57 293 7.8
2019-Dec-12 21:52 293 8.3
2019-Dec-12 21:47 293 8.3
2019-Dec-12 21:42 293 8.3
2019-Dec-12 21:37 293 8.3
2019-Dec-12 21:32 293 7.8
2019-Dec-12 21:27 293 8.3
2019-Dec-12 21:22 293 8.3
2019-Dec-12 21:17 293 8.3
2019-Dec-12 21:12 293 8.3
2019-Dec-12 21:07 293 8.3
2019-Dec-12 21:02 293 8.3
2019-Dec-12 20:57 293 8.3
2019-Dec-12 20:52 293 8.3
2019-Dec-12 20:47 293 8.3
2019-Dec-12 20:42 293 8.3
2019-Dec-12 20:37 293 8.3
2019-Dec-12 20:32 293 8.3
2019-Dec-12 20:27 293 8.3
2019-Dec-12 20:22 293 8.3
2019-Dec-12 20:17 293 8.3
2019-Dec-12 20:12 293 8.3
2019-Dec-12 20:07 293 8.3
2019-Dec-12 20:02 293 8.3
2019-Dec-12 19:57 293 8.3
2019-Dec-12 19:52 293 8.3
2019-Dec-12 19:47 293 8.3
2019-Dec-12 19:42 293 0 gusting 1 8.3
2019-Dec-12 19:37 293 8.9
2019-Dec-12 19:32 293 0 gusting 1 8.9
2019-Dec-12 19:27 293 0 gusting 1 8.9
2019-Dec-12 19:22 252 8.9
2019-Dec-12 19:17 248 8.9
2019-Dec-12 19:12 248 8.9
2019-Dec-12 19:07 248 8.9
2019-Dec-12 19:02 248 8.9
2019-Dec-12 19:00 227 8.9
2019-Dec-12 18:52 227 0 gusting 2 8.9
2019-Dec-12 18:47 225 8.9
2019-Dec-12 18:42 230 8.9
2019-Dec-12 18:37 230 8.9
2019-Dec-12 18:32 230 8.9
2019-Dec-12 18:27 229 9.4
2019-Dec-12 18:22 229 0 gusting 1 9.4
2019-Dec-12 18:17 228 9.4
2019-Dec-12 18:12 227 9.4
2019-Dec-12 18:07 227 0 gusting 2 9.4
2019-Dec-12 18:02 227 0 gusting 2 9.4
2019-Dec-12 17:57 219 0 gusting 2 9.4
2019-Dec-12 17:52 207 9.4
2019-Dec-12 17:47 207 0 gusting 4 9.4
2019-Dec-12 17:42 206 0 gusting 4 9.4
2019-Dec-12 17:37 273 0 gusting 4 9.4
2019-Dec-12 17:32 128 0 gusting 4 9.4
2019-Dec-12 17:27 227 0 gusting 4 9.4
2019-Dec-12 17:22 224 9.4
2019-Dec-12 17:17 267 9.4
2019-Dec-12 17:15 267 9.4
2019-Dec-12 17:07 267 9.4
2019-Dec-12 17:02 267 9.4
2019-Dec-12 17:00 267 8.9
2019-Dec-12 16:52 267 9.4
2019-Dec-12 16:48 267 8.9
2019-Dec-12 16:42 267 9.4
2019-Dec-12 16:37 267 9.4
2019-Dec-12 16:32 267 8.9
2019-Dec-12 16:27 267 9.4
2019-Dec-12 16:22 269 9.4
2019-Dec-12 16:17 270 9.4
2019-Dec-12 16:12 271 9.4
2019-Dec-12 16:07 271 10.0
2019-Dec-12 16:02 271 9.4
2019-Dec-12 15:57 271 10.0
2019-Dec-12 15:52 271 10.0
2019-Dec-12 15:47 271 10.0
2019-Dec-12 15:42 271 10.0
2019-Dec-12 15:37 271 10.6
2019-Dec-12 15:32 271 10.6
2019-Dec-12 15:27 271 10.6
2019-Dec-12 15:22 271 10.6
2019-Dec-12 15:17 271 0 gusting 3 11.1
2019-Dec-12 15:12 271 0 gusting 4 11.1
2019-Dec-12 15:07 277 1 gusting 6 11.1
2019-Dec-12 15:02 278 1 gusting 6 11.1